,,,PA_Meas_PMT16A,,PR_Meas_QMR101_102,,RH_Meas_QMH101,,SR_Meas_QMS101,,TA_Meas_QMH101,,GenWind,,GenWind,
date,time,status,PA,status,PR,status,RH,status,SR,status,TA,status,DirAvg,status,SpdAvg,
2008-06-24, 00:00:05,VALID,1005.39,VALID,0,VALID,95.2161,VALID,0,VALID,24.0539,VALID,350,VALID,0.0523437,
2008-06-24, 00:01:05,VALID,1005.36,VALID,0,VALID,95.2389,VALID,0,VALID,24.0752,VALID,350,VALID,0.191406,
2008-06-24, 00:02:05,VALID,1005.33,VALID,0,VALID,95.2847,VALID,0.100563,VALID,24.0345,VALID,350,VALID,0,
2008-06-24, 00:03:04,VALID,1005.31,VALID,0,VALID,95.2923,VALID,0,VALID,24.0734,VALID,350,VALID,0,
2008-06-24, 00:04:04,VALID,1005.29,VALID,0,VALID,95.3229,VALID,0,VALID,24.0947,VALID,350,VALID,0.0867188,
2008-06-24, 00:05:04,VALID,1005.29,VALID,0,VALID,95.2923,VALID,0.100563,VALID,24.1142,VALID,350,VALID,0,
2008-06-24, 00:06:04,VALID,1005.25,VALID,0,VALID,95.3076,VALID,0.100563,VALID,24.0929,VALID,350,VALID,0,
2008-06-24, 00:07:04,VALID,1005.27,VALID,0,VALID,95.2847,VALID,0,VALID,24.1142,VALID,350,VALID,0,
2008-06-24, 00:08:04,VALID,1005.27,VALID,0,VALID,95.2542,VALID,0,VALID,24.1142,VALID,350,VALID,0.0128906,
2008-06-24, 00:09:04,VALID,1005.26,VALID,0,VALID,95.2466,VALID,0,VALID,24.0947,VALID,350,VALID,0.383203,
2008-06-24, 00:10:04,VALID,1005.26,VALID,0,VALID,95.2542,VALID,0,VALID,24.116,VALID,350,VALID,0.3125,
2008-06-24, 00:11:04,VALID,1005.28,VALID,0,VALID,95.2466,VALID,0,VALID,24.0947,VALID,350,VALID,0.384766,
2008-06-24, 00:12:04,VALID,1005.27,VALID,0,VALID,95.2466,VALID,0,VALID,24.0947,VALID,350,VALID,0.212891,
2008-06-24, 00:13:04,VALID,1005.28,VALID,0,VALID,95.2313,VALID,0,VALID,24.0752,VALID,350,VALID,0.220313,
2008-06-24, 00:14:04,VALID,1005.27,VALID,0,VALID,95.2695,VALID,0,VALID,24.0752,VALID,350,VALID,0.23125,
2008-06-24, 00:15:04,VALID,1005.29,VALID,0,VALID,95.2618,VALID,0,VALID,24.077,VALID,350,VALID,0.107422,
2008-06-24, 00:16:04,VALID,1005.27,VALID,0,VALID,95.3305,VALID,0,VALID,24.0557,VALID,350,VALID,0,
2008-06-24, 00:17:04,VALID,1005.27,VALID,0,VALID,95.3686,VALID,0,VALID,24.0752,VALID,350,VALID,0,
2008-06-24, 00:18:04,VALID,1005.28,VALID,0,VALID,95.3305,VALID,0,VALID,24.0752,VALID,350,VALID,0,
2008-06-24, 00:19:04,VALID,1005.28,VALID,0,VALID,95.3152,VALID,0,VALID,24.0965,VALID,350,VALID,0.321094,
2008-06-24, 00:20:04,VALID,1005.24,VALID,0,VALID,95.3076,VALID,0,VALID,24.0557,VALID,350,VALID,0.4625,
2008-06-24, 00:21:04,VALID,1005.23,VALID,0,VALID,95.2923,VALID,0,VALID,24.0557,VALID,350,VALID,0.517187,
2008-06-24, 00:22:04,VALID,1005.22,VALID,0,VALID,95.3,VALID,0,VALID,24.0557,VALID,350,VALID,0.419922,
2008-06-24, 00:23:04,VALID,1005.23,VALID,0,VALID,95.3457,VALID,0,VALID,24.0345,VALID,350,VALID,0.380469,
2008-06-24, 00:24:04,VALID,1005.22,VALID,0,VALID,95.361,VALID,0,VALID,24.0363,VALID,350,VALID,0.326953,
2008-06-24, 00:25:04,VALID,1005.24,VALID,0,VALID,95.3686,VALID,0,VALID,24.0557,VALID,350,VALID,0.314453,
2008-06-24, 00:26:04,VALID,1005.25,VALID,0,VALID,95.3686,VALID,0.100563,VALID,24.0557,VALID,350,VALID,0.208203,
2008-06-24, 00:27:04,VALID,1005.26,VALID,0,VALID,95.3763,VALID,0,VALID,24.0345,VALID,350,VALID,0.273047,
2008-06-24, 00:28:04,VALID,1005.28,VALID,0,VALID,95.4068,VALID,0.100563,VALID,24.0345,VALID,350,VALID,0.286719,
2008-06-24, 00:29:04,VALID,1005.17,VALID,0,VALID,95.3763,VALID,0,VALID,24.0363,VALID,350,VALID,0.274609,
2008-06-24, 00:30:04,VALID,1005.31,VALID,0,VALID,95.4373,VALID,0,VALID,24.0363,VALID,350,VALID,0.271484,
2008-06-24, 00:31:04,VALID,1004.94,VALID,0,VALID,95.4754,VALID,0,VALID,24.015,VALID,350,VALID,0.322656,
2008-06-24, 00:32:04,VALID,1004.9,VALID,0,VALID,95.506,VALID,0.100563,VALID,24.0557,VALID,350,VALID,0.304297,
2008-06-24, 07:16:05,VALID,1006.48,VALID,0,VALID,93.3851,VALID,78.238,VALID,24.9319,VALID,95,VALID,0.367188,
2008-06-24, 07:17:05,VALID,1006.44,VALID,0,VALID,93.3928,VALID,78.6402,VALID,24.9514,VALID,95,VALID,0.410937,
2008-06-24, 07:18:05,VALID,1006.47,VALID,0,VALID,93.3699,VALID,78.7408,VALID,24.9709,VALID,95,VALID,0.345313,
2008-06-24, 07:19:05,VALID,1006.46,VALID,0,VALID,93.2325,VALID,78.8413,VALID,24.9709,VALID,95,VALID,0.444922,
2008-06-24, 07:20:05,VALID,1006.46,VALID,0,VALID,93.1257,VALID,78.9419,VALID,24.9904,VALID,96,VALID,0.383594,
2008-06-24, 07:21:05,VALID,1006.47,VALID,0,VALID,93.1257,VALID,79.0425,VALID,24.9885,VALID,96,VALID,0.465625,
2008-06-24, 07:22:05,VALID,1006.46,VALID,0,VALID,92.9808,VALID,79.3442,VALID,25.0312,VALID,122,VALID,0.638672,
2008-06-24, 07:23:05,VALID,1006.47,VALID,0,VALID,93.0418,VALID,79.847,VALID,25.0682,VALID,119,VALID,0.46875,
2008-06-24, 07:24:05,VALID,1006.44,VALID,0,VALID,92.7748,VALID,80.3498,VALID,25.0469,VALID,119,VALID,0.323047,
2008-06-24, 07:25:05,VALID,1006.43,VALID,0,VALID,92.9121,VALID,81.1543,VALID,25.1072,VALID,113,VALID,0.507813,
2008-06-24, 07:26:05,VALID,1006.47,VALID,0,VALID,92.874,VALID,82.0594,VALID,25.1267,VALID,107,VALID,0.349609,
2008-06-24, 07:27:05,VALID,1006.46,VALID,0,VALID,92.935,VALID,83.065,VALID,25.1461,VALID,107,VALID,0.393359,
2008-06-24, 07:28:05,VALID,1006.49,VALID,0,VALID,92.7748,VALID,84.3723,VALID,25.1461,VALID,100,VALID,0.572266,
2008-06-24, 07:29:05,VALID,1006.47,VALID,0,VALID,92.874,VALID,85.9813,VALID,25.1656,VALID,99,VALID,0.573828,
2008-06-24, 07:30:05,VALID,1006.51,VALID,0,VALID,92.9808,VALID,87.892,VALID,25.226,VALID,96,VALID,0.800781,
2008-06-24, 07:31:05,VALID,1006.53,VALID,0,VALID,92.935,VALID,90.0038,VALID,25.1851,VALID,94,VALID,0.621484,
2008-06-24, 07:32:05,VALID,1006.54,VALID,0,VALID,92.9045,VALID,92.2162,VALID,25.2046,VALID,100,VALID,0.627734,
2008-06-24, 07:33:05,VALID,1006.54,VALID,0,VALID,92.7824,VALID,94.5292,VALID,25.2046,VALID,112,VALID,0.73125,
2008-06-24, 07:34:05,VALID,1006.53,VALID,0,VALID,92.9426,VALID,96.4399,VALID,25.224,VALID,82,VALID,0.667188,
2008-06-24, 07:35:05,VALID,1006.54,VALID,0,VALID,92.7596,VALID,98.5517,VALID,25.2435,VALID,91,VALID,0.7375,
2008-06-24, 07:36:05,VALID,1006.55,VALID,0,VALID,92.7519,VALID,100.161,VALID,25.2435,VALID,103,VALID,0.484375,
2008-06-24, 07:37:05,VALID,1006.56,VALID,0,VALID,92.6146,VALID,102.273,VALID,25.263,VALID,87,VALID,0.824219,
2008-06-24, 07:38:05,VALID,1006.54,VALID,0,VALID,92.5917,VALID,104.284,VALID,25.2435,VALID,112,VALID,0.565625,
2008-06-24, 07:39:05,VALID,1006.53,VALID,0,VALID,92.462,VALID,106.094,VALID,25.263,VALID,104,VALID,0.833203,
2008-06-24, 07:40:05,VALID,1006.57,VALID,0,VALID,92.3095,VALID,108.005,VALID,25.263,VALID,85,VALID,0.705469,
2008-06-24, 07:41:05,VALID,1006.57,VALID,0,VALID,92.2637,VALID,109.915,VALID,25.2825,VALID,71,VALID,0.405078,
2008-06-24, 07:42:05,VALID,1006.57,VALID,0,VALID,92.2561,VALID,112.128,VALID,25.3428,VALID,102,VALID,1.19141,
2008-06-24, 07:43:05,VALID,1006.6,VALID,0,VALID,92.1645,VALID,114.24,VALID,25.3623,VALID,112,VALID,0.683594,
2008-06-24, 07:44:05,VALID,1006.64,VALID,0,VALID,92.2789,VALID,116.452,VALID,25.3818,VALID,102,VALID,0.696875,
2008-06-24, 07:45:05,VALID,1006.64,VALID,0,VALID,92.073,VALID,118.865,VALID,25.3604,VALID,102,VALID,0.849219,
2008-06-24, 07:46:05,VALID,1006.64,VALID,0,VALID,91.9433,VALID,120.877,VALID,25.4207,VALID,102,VALID,1.17227,
2008-06-24, 07:47:05,VALID,1006.66,VALID,0,VALID,91.8746,VALID,122.988,VALID,25.4188,VALID,93,VALID,0.721484,
2008-06-24, 07:48:05,VALID,1006.65,VALID,0,VALID,91.455,VALID,124.597,VALID,25.4188,VALID,93,VALID,0.724609,
2008-06-24, 07:49:05,VALID,1006.67,VALID,0,VALID,91.6686,VALID,125.804,VALID,25.4772,VALID,88,VALID,0.358984,
2008-06-24, 07:50:05,VALID,1006.67,VALID,0,VALID,91.455,VALID,126.91,VALID,25.5181,VALID,102,VALID,0.987891,
2008-06-24, 07:51:05,VALID,1006.67,VALID,0,VALID,91.8288,VALID,127.715,VALID,25.5357,VALID,72,VALID,0.625,
2008-06-24, 07:52:05,VALID,1006.7,VALID,0,VALID,91.5847,VALID,128.62,VALID,25.5571,VALID,91,VALID,1.15742,
2008-06-24, 07:53:05,VALID,1006.7,VALID,0,VALID,91.6,VALID,128.519,VALID,25.5551,VALID,81,VALID,0.628516,
2008-06-24, 07:54:05,VALID,1006.71,VALID,0,VALID,91.6839,VALID,128.318,VALID,25.596,VALID,92,VALID,0.891406,
2008-06-24, 07:55:05,VALID,1006.7,VALID,0,VALID,91.6457,VALID,128.821,VALID,25.5941,VALID,90,VALID,1.14023,
2008-06-24, 07:56:05,VALID,1006.7,VALID,0,VALID,91.6991,VALID,128.419,VALID,25.6155,VALID,100,VALID,1.09023,
2008-06-24, 07:57:05,VALID,1006.72,VALID,0,VALID,91.7144,VALID,130.028,VALID,25.6136,VALID,118,VALID,0.946875,
2008-06-24, 07:58:05,VALID,1006.7,VALID,0,VALID,91.4779,VALID,132.643,VALID,25.6136,VALID,109,VALID,1.26563,
2008-06-24, 07:59:05,VALID,1006.72,VALID,0,VALID,91.5923,VALID,135.559,VALID,25.6739,VALID,106,VALID,1.26523,
2008-06-24, 08:00:04,VALID,1006.71,VALID,0,VALID,91.5161,VALID,136.967,VALID,25.6525,VALID,100,VALID,1.0332,
2008-06-24, 08:01:04,VALID,1006.71,VALID,0,VALID,91.5847,VALID,137.168,VALID,25.6525,VALID,71,VALID,1.20625,
2008-06-24, 08:02:04,VALID,1006.72,VALID,0,VALID,91.6076,VALID,137.771,VALID,25.6895,VALID,88,VALID,0.79375,
2008-06-24, 08:03:04,VALID,1006.74,VALID,0,VALID,91.7983,VALID,138.676,VALID,25.709,VALID,100,VALID,0.623828,
2008-06-24, 08:04:04,VALID,1006.72,VALID,0,VALID,91.7602,VALID,138.877,VALID,25.7499,VALID,121,VALID,0.616797,
2008-06-24, 08:05:04,VALID,1006.73,VALID,0,VALID,91.8822,VALID,140.084,VALID,25.7889,VALID,114,VALID,0.716406,
2008-06-24, 08:06:04,VALID,1006.72,VALID,0,VALID,91.722,VALID,141.492,VALID,25.8103,VALID,116,VALID,0.656641,
2008-06-24, 08:07:04,VALID,1006.74,VALID,0,VALID,91.3024,VALID,142.297,VALID,25.7889,VALID,136,VALID,1.20117,
2008-06-24, 08:08:04,VALID,1006.72,VALID,0,VALID,90.6998,VALID,143.704,VALID,25.7694,VALID,92,VALID,2.225,
2008-06-24, 08:09:04,VALID,1006.73,VALID,0,VALID,90.7303,VALID,145.313,VALID,25.7889,VALID,125,VALID,1.26211,
2008-06-24, 08:10:04,VALID,1006.71,VALID,0,VALID,90.4251,VALID,146.621,VALID,25.8083,VALID,119,VALID,1.49922,
2008-06-24, 08:11:04,VALID,1006.75,VALID,0,VALID,90.4251,VALID,147.928,VALID,25.8278,VALID,123,VALID,1.04531,
2008-06-24, 08:12:04,VALID,1006.74,VALID,0,VALID,90.1657,VALID,149.336,VALID,25.8083,VALID,119,VALID,1.63359,
2008-06-24, 08:13:04,VALID,1006.76,VALID,0,VALID,89.2426,VALID,150.744,VALID,25.7889,VALID,126,VALID,1.67188,
2008-06-24, 08:14:04,VALID,1006.78,VALID,0,VALID,89.441,VALID,151.749,VALID,25.8278,VALID,118,VALID,1.36953,
2008-06-24, 08:15:04,VALID,1006.77,VALID,0,VALID,89.6622,VALID,152.554,VALID,25.8473,VALID,123,VALID,1.72305,
2008-06-24, 08:16:04,VALID,1006.73,VALID,0,VALID,89.5707,VALID,153.157,VALID,25.8259,VALID,120,VALID,1.37148,
2008-06-24, 08:17:04,VALID,1006.76,VALID,0,VALID,89.6622,VALID,153.66,VALID,25.8473,VALID,131,VALID,1.60586,
2008-06-24, 08:18:04,VALID,1006.78,VALID,0,VALID,89.7156,VALID,154.163,VALID,25.8473,VALID,120,VALID,1.58359,
2008-06-24, 08:19:04,VALID,1006.76,VALID,0,VALID,89.4944,VALID,154.565,VALID,25.8473,VALID,95,VALID,1.37148,
2008-06-24, 08:20:04,VALID,1006.77,VALID,0,VALID,90.1276,VALID,155.169,VALID,25.8668,VALID,128,VALID,1.01367,
2008-06-24, 08:21:04,VALID,1006.8,VALID,0,VALID,90.0589,VALID,155.873,VALID,25.8863,VALID,126,VALID,0.9625,
2008-06-24, 08:22:04,VALID,1006.79,VALID,0,VALID,89.7996,VALID,156.375,VALID,25.8863,VALID,138,VALID,1.38711,
2008-06-24, 08:23:04,VALID,1006.82,VALID,0,VALID,89.3723,VALID,156.878,VALID,25.8668,VALID,148,VALID,1.43008,
2008-06-24, 08:24:04,VALID,1006.79,VALID,0,VALID,88.9375,VALID,157.381,VALID,25.8863,VALID,146,VALID,1.87812,
2008-06-24, 08:25:04,VALID,1006.8,VALID,0,VALID,89.3189,VALID,157.783,VALID,25.9057,VALID,136,VALID,1.19531,
2008-06-24, 08:26:04,VALID,1006.82,VALID,0,VALID,89.914,VALID,158.186,VALID,25.9057,VALID,105,VALID,0.826172,
2008-06-24, 08:27:04,VALID,1006.81,VALID,0,VALID,89.502,VALID,158.487,VALID,25.9252,VALID,116,VALID,1.38242,
2008-06-24, 08:28:04,VALID,1006.82,VALID,0,VALID,89.9369,VALID,158.99,VALID,25.9447,VALID,128,VALID,0.888672,
2008-06-24, 08:29:04,VALID,1006.78,VALID,0,VALID,89.4944,VALID,159.392,VALID,25.9447,VALID,118,VALID,1.06992,
2008-06-24, 08:30:04,VALID,1006.81,VALID,0,VALID,89.8911,VALID,159.694,VALID,25.9447,VALID,123,VALID,0.815234,
2008-06-24, 08:31:04,VALID,1006.8,VALID,0,VALID,89.1206,VALID,160.096,VALID,25.9447,VALID,128,VALID,1.12031,
2008-06-24, 08:32:04,VALID,1006.78,VALID,0,VALID,89.4257,VALID,160.498,VALID,25.9642,VALID,113,VALID,1.04609,
2008-06-24, 08:33:04,VALID,1006.79,VALID,0,VALID,89.0977,VALID,161.202,VALID,25.9856,VALID,104,VALID,1.22695,
2008-06-24, 08:34:04,VALID,1006.79,VALID,0,VALID,89.2884,VALID,162.51,VALID,25.9836,VALID,112,VALID,0.891016,
2008-06-24, 08:35:04,VALID,1006.79,VALID,0,VALID,88.8002,VALID,164.219,VALID,25.9642,VALID,121,VALID,1.21523,
2008-06-24, 08:36:04,VALID,1006.78,VALID,0,VALID,88.6476,VALID,166.231,VALID,25.9836,VALID,102,VALID,1.44336,
2008-06-24, 08:37:04,VALID,1006.78,VALID,0,VALID,88.8688,VALID,168.644,VALID,25.9817,VALID,101,VALID,1.28008,
2008-06-24, 08:38:04,VALID,1006.78,VALID,0,VALID,88.434,VALID,171.56,VALID,26.0031,VALID,138,VALID,1.25742,
2008-06-24, 08:39:04,VALID,1006.76,VALID,0,VALID,88.5332,VALID,174.879,VALID,26.0226,VALID,121,VALID,1.26758,
2008-06-24, 08:40:04,VALID,1006.76,VALID,0,VALID,88.8612,VALID,178.499,VALID,26.0616,VALID,114,VALID,0.808594,
2008-06-24, 08:41:04,VALID,1006.78,VALID,0,VALID,88.8459,VALID,182.421,VALID,26.081,VALID,90,VALID,0.778516,
2008-06-24, 08:42:04,VALID,1006.77,VALID,0,VALID,88.6628,VALID,186.243,VALID,26.081,VALID,115,VALID,0.935938,
2008-06-24, 08:43:04,VALID,1006.78,VALID,0,VALID,88.7697,VALID,190.265,VALID,26.081,VALID,120,VALID,1.10312,
2008-06-24, 08:44:04,VALID,1006.81,VALID,0,VALID,89.0519,VALID,193.986,VALID,26.0985,VALID,116,VALID,0.911719,
2008-06-24, 08:45:04,VALID,1006.76,VALID,0,VALID,87.427,VALID,197.506,VALID,26.1005,VALID,103,VALID,1.18945,
2008-06-24, 08:46:04,VALID,1006.76,VALID,0,VALID,87.1218,VALID,201.025,VALID,26.12,VALID,110,VALID,1.63945,
2008-06-24, 08:47:04,VALID,1006.74,VALID,0,VALID,88.1365,VALID,203.841,VALID,26.1395,VALID,108,VALID,1.01523,
2008-06-24, 08:48:04,VALID,1006.74,VALID,0,VALID,87.8542,VALID,206.657,VALID,26.1609,VALID,102,VALID,0.829687,
2008-06-24, 08:49:04,VALID,1006.75,VALID,0,VALID,87.4499,VALID,208.97,VALID,26.1999,VALID,109,VALID,1.17148,
2008-06-24, 08:50:04,VALID,1006.74,VALID,0,VALID,88.1593,VALID,210.981,VALID,26.2584,VALID,92,VALID,1.13164,
2008-06-24, 08:51:04,VALID,1006.71,VALID,0,VALID,87.1752,VALID,212.892,VALID,26.2369,VALID,105,VALID,1.09258,
2008-06-24, 08:52:04,VALID,1006.73,VALID,0,VALID,86.7175,VALID,214.501,VALID,26.2778,VALID,99,VALID,1.28008,
2008-06-24, 08:53:04,VALID,1006.72,VALID,0,VALID,87.1294,VALID,216.11,VALID,26.2759,VALID,67,VALID,0.877734,
2008-06-24, 08:54:04,VALID,1006.74,VALID,0,VALID,86.9769,VALID,217.92,VALID,26.3343,VALID,123,VALID,1.04414,
2008-06-24, 08:55:04,VALID,1006.71,VALID,0,VALID,86.2369,VALID,219.127,VALID,26.3128,VALID,87,VALID,1.425,
2008-06-24, 08:56:04,VALID,1006.71,VALID,0,VALID,87.488,VALID,220.032,VALID,26.3733,VALID,126,VALID,0.542969,
2008-06-24, 08:57:04,VALID,1006.7,VALID,0,VALID,84.7492,VALID,221.238,VALID,26.3538,VALID,152,VALID,2.42305,
2008-06-24, 08:58:04,VALID,1006.72,VALID,0,VALID,85.6952,VALID,222.646,VALID,26.4142,VALID,149,VALID,1.01328,
2008-06-24, 08:59:04,VALID,1006.7,VALID,0,VALID,86.687,VALID,223.753,VALID,26.4317,VALID,140,VALID,0.841797,
2008-06-24, 09:00:04,VALID,1006.73,VALID,0,VALID,86.2216,VALID,225.16,VALID,26.4727,VALID,153,VALID,0.895703,
2008-06-24, 09:01:04,VALID,1006.69,VALID,0,VALID,85.7715,VALID,227.272,VALID,26.5116,VALID,140,VALID,1.16133,
2008-06-24, 09:02:04,VALID,1006.7,VALID,0,VALID,85.1459,VALID,229.183,VALID,26.4512,VALID,133,VALID,1.31914,
2008-06-24, 09:03:04,VALID,1006.7,VALID,0,VALID,84.9705,VALID,230.993,VALID,26.4707,VALID,134,VALID,1.05117,
2008-06-24, 09:04:04,VALID,1006.74,VALID,0,VALID,84.3602,VALID,232.2,VALID,26.4727,VALID,131,VALID,1.50391,
2008-06-24, 09:05:04,VALID,1006.73,VALID,0,VALID,85.9622,VALID,233.608,VALID,26.5096,VALID,141,VALID,0.971875,
2008-06-24, 09:06:04,VALID,1006.73,VALID,0,VALID,86.4657,VALID,234.915,VALID,26.5291,VALID,83,VALID,0.326562,
2008-06-24, 09:07:04,VALID,1006.72,VALID,0,VALID,86.748,VALID,236.625,VALID,26.5896,VALID,116,VALID,0.959766,
2008-06-24, 09:08:04,VALID,1006.74,VALID,0,VALID,85.4206,VALID,237.53,VALID,26.5486,VALID,119,VALID,1.00273,
2008-06-24, 09:09:04,VALID,1006.72,VALID,0,VALID,85.3748,VALID,237.329,VALID,26.5486,VALID,97,VALID,1.01406,
2008-06-24, 09:10:04,VALID,1006.72,VALID,0,VALID,85.8096,VALID,237.027,VALID,26.6285,VALID,106,VALID,0.796094,
2008-06-24, 09:11:04,VALID,1006.7,VALID,0,VALID,85.8249,VALID,236.926,VALID,26.646,VALID,99,VALID,0.553516,
2008-06-24, 09:12:04,VALID,1006.71,VALID,0,VALID,84.8713,VALID,236.524,VALID,26.648,VALID,96,VALID,1.42109,
2008-06-24, 09:13:04,VALID,1006.72,VALID,0,VALID,85.7562,VALID,235.619,VALID,26.687,VALID,93,VALID,0.701953,
2008-06-24, 09:14:04,VALID,1006.7,VALID,0,VALID,83.4065,VALID,234.513,VALID,26.687,VALID,127,VALID,1.27461,
2008-06-24, 09:15:04,VALID,1006.73,VALID,0,VALID,83.048,VALID,232.3,VALID,26.6675,VALID,92,VALID,1.46563,
2008-06-24, 09:16:04,VALID,1006.72,VALID,0,VALID,82.8191,VALID,230.189,VALID,26.6265,VALID,115,VALID,0.9,
2008-06-24, 09:17:04,VALID,1006.73,VALID,0,VALID,82.7428,VALID,228.177,VALID,26.6675,VALID,124,VALID,1.95703,
2008-06-24, 09:18:04,VALID,1006.74,VALID,0,VALID,81.896,VALID,225.563,VALID,26.648,VALID,130,VALID,1.68125,
2008-06-24, 09:19:04,VALID,1006.73,VALID,0,VALID,82.8191,VALID,223.149,VALID,26.646,VALID,132,VALID,1.43516,
2008-06-24, 09:20:04,VALID,1006.74,VALID,0,VALID,82.903,VALID,221.138,VALID,26.646,VALID,72,VALID,0.855078,
2008-06-24, 09:21:04,VALID,1006.73,VALID,0,VALID,82.3156,VALID,219.529,VALID,26.6675,VALID,104,VALID,1.65313,
2008-06-24, 09:22:04,VALID,1006.75,VALID,0,VALID,82.7962,VALID,218.624,VALID,26.6265,VALID,106,VALID,0.869531,
2008-06-24, 09:23:04,VALID,1006.74,VALID,0,VALID,84.3678,VALID,218.02,VALID,26.685,VALID,118,VALID,0.764453,
2008-06-24, 09:24:04,VALID,1006.76,VALID,0,VALID,82.7734,VALID,217.819,VALID,26.6655,VALID,104,VALID,1.6125,
2008-06-24, 09:25:04,VALID,1006.76,VALID,0,VALID,83.4065,VALID,217.719,VALID,26.687,VALID,90,VALID,0.980078,
2008-06-24, 09:26:04,VALID,1006.76,VALID,0,VALID,82.8268,VALID,217.719,VALID,26.7065,VALID,111,VALID,0.830469,
2008-06-24, 09:27:04,VALID,1006.76,VALID,0,VALID,83.8033,VALID,218.322,VALID,26.726,VALID,129,VALID,0.985547,
2008-06-24, 09:28:04,VALID,1006.74,VALID,0,VALID,82.5292,VALID,218.724,VALID,26.687,VALID,128,VALID,1.07695,
2008-06-24, 09:29:04,VALID,1006.75,VALID,0,VALID,83.315,VALID,218.624,VALID,26.685,VALID,122,VALID,0.885938,
2008-06-24, 09:30:04,VALID,1006.75,VALID,0,VALID,83.8414,VALID,218.624,VALID,26.726,VALID,100,VALID,1.14375,
2008-06-24, 09:31:04,VALID,1006.72,VALID,0,VALID,83.1777,VALID,218.825,VALID,26.7065,VALID,117,VALID,1.28672,
2008-06-24, 09:32:04,VALID,1006.72,VALID,0,VALID,83.2158,VALID,219.127,VALID,26.726,VALID,124,VALID,1.03281,
2008-06-24, 09:33:04,VALID,1006.69,VALID,0,VALID,82.2164,VALID,219.529,VALID,26.685,VALID,82,VALID,1.41484,
2008-06-24, 09:34:04,VALID,1006.72,VALID,0,VALID,83.2082,VALID,220.937,VALID,26.726,VALID,102,VALID,1.13437,
2008-06-24, 09:35:04,VALID,1006.7,VALID,0,VALID,82.3309,VALID,222.747,VALID,26.7045,VALID,101,VALID,1.21211,
2008-06-24, 09:36:04,VALID,1006.68,VALID,0,VALID,82.7428,VALID,225.663,VALID,26.726,VALID,109,VALID,0.799219,
2008-06-24, 09:37:04,VALID,1006.7,VALID,0,VALID,84.2305,VALID,229.987,VALID,26.7649,VALID,112,VALID,0.690625,
2008-06-24, 09:38:04,VALID,1006.7,VALID,0,VALID,81.7282,VALID,235.619,VALID,26.7649,VALID,114,VALID,1.31328,
2008-06-24, 09:39:04,VALID,1006.7,VALID,0,VALID,81.8655,VALID,242.256,VALID,26.8039,VALID,142,VALID,0.986328,
2008-06-24, 09:40:04,VALID,1006.67,VALID,0,VALID,82.1325,VALID,249.798,VALID,26.8234,VALID,119,VALID,1.38359,
2008-06-24, 09:41:04,VALID,1006.68,VALID,0,VALID,82.4301,VALID,257.944,VALID,26.8234,VALID,101,VALID,1.1918,
2008-06-24, 09:42:04,VALID,1006.68,VALID,0,VALID,82.6055,VALID,267.699,VALID,26.8429,VALID,83,VALID,0.732031,
2008-06-24, 09:43:04,VALID,1006.68,VALID,0,VALID,81.6824,VALID,278.66,VALID,26.8819,VALID,104,VALID,1.47344,
2008-06-24, 09:44:04,VALID,1006.7,VALID,0,VALID,82.0028,VALID,289.822,VALID,26.9013,VALID,101,VALID,1.30039,
2008-06-24, 09:45:04,VALID,1006.66,VALID,0,VALID,81.5832,VALID,301.488,VALID,26.9383,VALID,148,VALID,0.614844,
2008-06-24, 09:46:04,VALID,1006.66,VALID,0,VALID,82.0105,VALID,311.142,VALID,27.0162,VALID,76,VALID,0.742188,
2008-06-24, 09:47:04,VALID,1006.64,VALID,0,VALID,83.0785,VALID,320.695,VALID,27.0747,VALID,123,VALID,1.00195,
2008-06-24, 09:48:04,VALID,1006.61,VALID,0,VALID,81.7282,VALID,331.455,VALID,27.1136,VALID,92,VALID,1.2793,
2008-06-24, 09:49:04,VALID,1006.63,VALID,0,VALID,80.5228,VALID,339.4,VALID,27.1547,VALID,119,VALID,0.817969,
2008-06-24, 09:50:04,VALID,1006.61,VALID,0,VALID,79.3022,VALID,342.015,VALID,27.1916,VALID,101,VALID,0.994141,
2008-06-24, 09:51:04,VALID,1006.58,VALID,0,VALID,80.2787,VALID,342.819,VALID,27.2306,VALID,127,VALID,1.44062,
2008-06-24, 09:52:04,VALID,1006.54,VALID,0,VALID,79.7981,VALID,346.64,VALID,27.2111,VALID,125,VALID,1.26602,
2008-06-24, 09:53:04,VALID,1006.55,VALID,0,VALID,79.7752,VALID,353.78,VALID,27.2306,VALID,105,VALID,1.44023,
2008-06-24, 09:54:04,VALID,1006.54,VALID,0,VALID,79.5921,VALID,357.904,VALID,27.2111,VALID,131,VALID,1.8168,
2008-06-24, 09:55:04,VALID,1006.53,VALID,0,VALID,78.3562,VALID,356.093,VALID,27.1721,VALID,122,VALID,1.3957,
2008-06-24, 09:56:04,VALID,1006.47,VALID,0,VALID,79.7828,VALID,354.686,VALID,27.1916,VALID,39,VALID,1.19844,
2008-06-24, 09:57:04,VALID,1006.48,VALID,0,VALID,78.9131,VALID,354.887,VALID,27.1916,VALID,69,VALID,1.49492,
2008-06-24, 09:58:04,VALID,1006.45,VALID,0,VALID,78.6232,VALID,356.395,VALID,27.2131,VALID,74,VALID,0.995703,
2008-06-24, 09:59:04,VALID,1006.48,VALID,0,VALID,79.0657,VALID,357.803,VALID,27.2131,VALID,108,VALID,1.51445,
2008-06-24, 10:00:04,VALID,1006.47,VALID,0,VALID,79.5769,VALID,359.714,VALID,27.1721,VALID,112,VALID,1.63437,
2008-06-24, 10:01:04,VALID,1006.44,VALID,0,VALID,80.6449,VALID,361.122,VALID,27.1916,VALID,87,VALID,1.00898,
2008-06-24, 10:02:04,VALID,1006.43,VALID,0,VALID,80.7975,VALID,363.032,VALID,27.2911,VALID,99,VALID,1.01953,
2008-06-24, 10:03:04,VALID,1006.41,VALID,0,VALID,81.0111,VALID,364.34,VALID,27.3301,VALID,117,VALID,1.20313,
2008-06-24, 10:04:04,VALID,1006.42,VALID,0,VALID,81.0492,VALID,366.25,VALID,27.3496,VALID,122,VALID,1.23984,
2008-06-24, 10:05:04,VALID,1006.39,VALID,0,VALID,80.6754,VALID,369.569,VALID,27.4059,VALID,29,VALID,0.437891,
2008-06-24, 10:06:04,VALID,1006.37,VALID,0,VALID,79.6608,VALID,373.692,VALID,27.447,VALID,33,VALID,0.891797,
2008-06-24, 10:07:04,VALID,1006.34,VALID,0,VALID,80.8051,VALID,378.72,VALID,27.4839,VALID,89,VALID,1.1543,
2008-06-24, 10:08:04,VALID,1006.36,VALID,0,VALID,77.1966,VALID,382.541,VALID,27.486,VALID,104,VALID,1.6043,
2008-06-24, 10:09:04,VALID,1006.3,VALID,0,VALID,78.3333,VALID,389.179,VALID,27.447,VALID,117,VALID,1.11289,
2008-06-24, 10:10:04,VALID,1006.3,VALID,0,VALID,78.8063,VALID,395.414,VALID,27.4059,VALID,104,VALID,1.53281,
2008-06-24, 10:11:04,VALID,1006.28,VALID,0,VALID,79.4395,VALID,399.235,VALID,27.447,VALID,109,VALID,0.797266,
2008-06-24, 10:12:04,VALID,1006.27,VALID,0,VALID,78.8292,VALID,403.861,VALID,27.5055,VALID,111,VALID,0.867188,
2008-06-24, 10:13:04,VALID,1006.27,VALID,0,VALID,78.9665,VALID,405.068,VALID,27.5834,VALID,83,VALID,0.613281,
2008-06-24, 10:14:04,VALID,1006.26,VALID,0,VALID,78.1045,VALID,410.498,VALID,27.6008,VALID,75,VALID,0.528516,
2008-06-24, 10:15:04,VALID,1006.24,VALID,0,VALID,78.547,VALID,424.677,VALID,27.6419,VALID,81,VALID,0.9375,
2008-06-24, 10:16:04,VALID,1006.21,VALID,0,VALID,76.3422,VALID,433.929,VALID,27.6029,VALID,91,VALID,1.04688,
2008-06-24, 10:17:04,VALID,1006.21,VALID,0,VALID,77.0822,VALID,439.359,VALID,27.6029,VALID,75,VALID,1.04648,
2008-06-24, 10:18:04,VALID,1006.17,VALID,0,VALID,76.7847,VALID,456.053,VALID,27.6224,VALID,69,VALID,0.894531,
2008-06-24, 10:19:04,VALID,1006.14,VALID,0,VALID,76.1439,VALID,461.785,VALID,27.7199,VALID,51,VALID,0.910547,